Billings, MT

4:11 AM MDT on September 18, 2019 (GMT -0600)
Billings Logan International

Weather History for KBIL - August, 2019

Change the Weather History Date:

Wednesday, August 21, 2019

  Actual Average Record
Temperature  
Mean Temperature 76 °F 71 °F  
Max Temperature 93 °F 85 °F 101 °F (2010)
Min Temperature 60 °F 56 °F 42 °F (1945)
Degree Days  
Heating Degree Days 0 1  
Month to date heating degree days 3 6  
Since 1 June heating degree days 58 114  
Since 1 July heating degree days 8 18  
Cooling Degree Days 12 6  
Month to date cooling degree days 237 171  
Year to date cooling degree days 653 529  
Since 1 June cooling degree days 636 512  
Growing Degree Days 26 (Base 50)    
Moisture  
Dew Point 51 °F    
Average Humidity 44    
Maximum Humidity 65    
Minimum Humidity 24    
Precipitation  
Precipitation 0.00 in 0.02 in 0.58 in (1965)
Month to date precipitation 0.93 0.51  
Year to date precipitation 12.80 9.81  
Snow  
Snow 0.00 in 0.00 in 0.00 in (2002)
Month to date snowfall T 0.0  
Since 1 June snowfall T 0.0  
Since 1 July snowfall T 0.0  
Snow Depth 0.00 in    
Sea Level Pressure  
Sea Level Pressure 29.93 in    
Wind  
Wind Speed 8 mph ()    
Max Wind Speed 18 mph    
Max Gust Speed 25 mph    
Visibility 10.0 miles    
Events      
T = Trace of Precipitation, MM = Missing Value Source: Averaged Metar Reports

Daily Weather History Graph

Daily Weather History Graph

Search for Another Location

Airport or City:

Astronomy

Aug. 21, 2019 Rise Set
Actual Time 6:21 AM MDT 8:12 PM MDT
Civil Twilight 5:49 AM MDT 8:44 PM MDT
Nautical Twilight 5:10 AM MDT 9:22 PM MDT
Astronomical Twilight 4:27 AM MDT 10:05 PM MDT
Moon 11:13 PM MDT (8/21) 12:17 PM MDT (8/21)
Length of Visible Light 14h 54m
Length of Day
13h 51m
Waning Gibbous, 68% of the Moon is Illuminated
Aug 21
Waning Gibbous
Aug 23
Last Quarter
Aug 30
New
Sep 5
First Quarter
Sep 13
Full

Hourly Weather History & Observations

Time (MDT) Temp. Heat Index Dew Point Humidity Pressure Visibility Wind Dir Wind Speed Gust Speed Precip Events Conditions
12:53 AM 70.0 °F - 48.9 °F 47% 30.01 in 10.0 mi North 11.5 mph - N/A   Mostly Cloudy
1:53 AM 68.0 °F - 48.9 °F 50% 30.01 in 10.0 mi North 10.4 mph - N/A   Partly Cloudy
2:53 AM 66.0 °F - 48.9 °F 54% 30.00 in 10.0 mi NNW 9.2 mph - N/A   Partly Cloudy
3:53 AM 63.0 °F - 50.0 °F 63% 30.01 in 10.0 mi WNW 9.2 mph - N/A   Partly Cloudy
4:53 AM 61.0 °F - 48.9 °F 64% 30.01 in 10.0 mi WNW 9.2 mph - N/A   Partly Cloudy
5:53 AM 60.1 °F - 48.0 °F 64% 30.02 in 10.0 mi WNW 10.4 mph - N/A   Partly Cloudy
6:53 AM 62.1 °F - 48.9 °F 62% 30.04 in 10.0 mi WSW 4.6 mph - N/A   Partly Cloudy
7:53 AM 63.0 °F - 48.9 °F 60% 30.04 in 10.0 mi NW 5.8 mph - N/A   Partly Cloudy
8:53 AM 68.0 °F - 51.1 °F 55% 30.04 in 10.0 mi North 4.6 mph - N/A   Partly Cloudy
9:53 AM 73.9 °F - 52.0 °F 46% 30.02 in 10.0 mi Variable 4.6 mph - N/A   Partly Cloudy
10:53 AM 78.1 °F - 53.1 °F 42% 30.01 in 10.0 mi East 4.6 mph - N/A   Partly Cloudy
11:53 AM 80.1 °F 80.1 °F 55.0 °F 42% 29.99 in 10.0 mi ENE 10.4 mph - N/A   Partly Cloudy
12:53 PM 82.0 °F 81.6 °F 55.9 °F 41% 29.96 in 10.0 mi ENE 9.2 mph - N/A   Partly Cloudy
2:53 PM 89.1 °F 87.1 °F 55.0 °F 31% 29.89 in 10.0 mi East 12.7 mph - N/A   Partly Cloudy
3:53 PM 91.9 °F 89.5 °F 53.1 °F 27% 29.86 in 10.0 mi East 13.8 mph - N/A   Partly Cloudy
4:53 PM 93.0 °F - 52.0 °F 25% 29.83 in 10.0 mi SE 10.4 mph - N/A   Partly Cloudy
5:53 PM 93.0 °F 90.6 °F 53.1 °F 26% 29.81 in 10.0 mi SSE 9.2 mph - N/A   Partly Cloudy
7:53 PM 88.0 °F 85.9 °F 54.0 °F 31% 29.79 in 10.0 mi East 8.1 mph - N/A   Partly Cloudy
8:53 PM 84.0 °F 82.9 °F 55.0 °F 37% 29.78 in 10.0 mi NE 6.9 mph - N/A   Scattered Clouds
9:53 PM 82.0 °F 81.2 °F 53.1 °F 37% 29.79 in 10.0 mi WSW 11.5 mph - N/A   Mostly Cloudy
10:53 PM 80.1 °F - 43.0 °F 27% 29.77 in 10.0 mi WSW 11.5 mph - N/A   Partly Cloudy
11:53 PM 77.0 °F - 46.0 °F 33% 29.75 in 10.0 mi WSW 12.7 mph 25.3 mph N/A   Partly Cloudy